Weather History for Princeton, MN

Change the Weather History Date:

Thursday, October 3, 2013

  Actual Average Record
Temperature  
Mean Temperature 54 °F -  
Max Temperature 55 °F 61 °F 86 °F (1997)
Min Temperature 53 °F 38 °F 23 °F (1999)
Degree Days  
Heating Degree Days 11    
Growing Degree Days 4 (Base 50)    
Moisture  
Dew Point 53 °F    
Average Humidity 93    
Maximum Humidity 94    
Minimum Humidity 88    
Precipitation  
Precipitation 0.08 in - - ()
Sea Level Pressure  
Sea Level Pressure 29.91 in    
Wind  
Wind Speed 7 mph (NNE)    
Max Wind Speed 13 mph    
Max Gust Speed 20 mph    
Visibility 9 miles    
Events Rain , Thunderstorm    
Averages and records for this station are not official NWS values.
T = Trace of Precipitation, MM = Missing Value Source: NWS Daily Summary

Daily Weather History Graph

Daily Weather History Graph

Search for Another Location

Airport:

Trip Planner

Search our weather history database for the weather conditions in past years. The results will help you decide how hot, cold, wet, or windy it might be!

Date:

Astronomy

Oct. 03, 2013 Rise Set
Actual Time 7:15 AM CDT 6:50 PM CDT
Civil Twilight 6:45 AM CDT 7:19 PM CDT
Nautical Twilight 6:11 AM CDT 7:54 PM CDT
Astronomical Twilight 5:36 AM CDT 8:28 PM CDT
Moon 5:47 AM CDT (10/3) 6:00 PM CDT (10/3)
Length of Visible Light 12h 33m
Length of Day
11h 34m
Waning Crescent, 2% of the Moon is Illuminated
Oct 3
Waning Crescent
Oct 4
New
Oct 11
First Quarter
Oct 18
Full
Oct 26
Last Quarter

Hourly Weather History & Observations

Time (CDT) Temp. Dew Point Humidity Pressure Visibility Wind Dir Wind Speed Gust Speed Precip Events Conditions
12:13 AM 53.6 °F 51.8 °F 94% 29.90 in 10.0 mi NE 6.9 mph - N/A   Overcast
12:33 AM 53.6 °F 51.8 °F 94% 29.89 in 10.0 mi NNE 6.9 mph - N/A   Overcast
12:53 AM 53.6 °F 51.8 °F 94% 29.89 in 10.0 mi NE 8.1 mph - N/A   Overcast
1:13 AM 53.6 °F 51.8 °F 94% 29.89 in 10.0 mi NNE 5.8 mph - N/A   Overcast
1:33 AM 53.6 °F 51.8 °F 94% 29.89 in 10.0 mi NNE 9.2 mph - N/A   Overcast
1:53 AM 53.6 °F 51.8 °F 94% 29.89 in 10.0 mi NE 6.9 mph - N/A   Overcast
2:13 AM 53.6 °F 51.8 °F 94% 29.90 in 10.0 mi NNE 5.8 mph - N/A   Overcast
2:33 AM 55.4 °F 51.8 °F 88% 29.90 in 7.0 mi NE 5.8 mph - N/A   Overcast
2:53 AM 53.6 °F 51.8 °F 94% 29.90 in 4.0 mi NNE 6.9 mph - N/A   Overcast
3:13 AM 53.6 °F 51.8 °F 94% 29.90 in 4.0 mi North 6.9 mph - N/A   Overcast
3:33 AM 53.6 °F 51.8 °F 94% 29.90 in 5.0 mi NNE 5.8 mph - N/A   Overcast
3:53 AM 53.6 °F 51.8 °F 94% 29.89 in 5.0 mi NE 5.8 mph - N/A   Overcast
4:13 AM 53.6 °F 51.8 °F 94% 29.90 in 10.0 mi NE 4.6 mph - N/A   Overcast
4:33 AM 53.6 °F 51.8 °F 94% 29.90 in 10.0 mi NE 4.6 mph - N/A   Overcast
4:53 AM 53.6 °F 51.8 °F 94% 29.90 in 10.0 mi NE 4.6 mph - N/A   Overcast
5:13 AM 53.6 °F 51.8 °F 94% 29.90 in 10.0 mi NE 3.5 mph - N/A   Overcast
5:33 AM 53.6 °F 51.8 °F 94% 29.90 in 10.0 mi NNE 4.6 mph - N/A   Overcast
5:53 AM 53.6 °F 51.8 °F 94% 29.90 in 10.0 mi NNE 5.8 mph - N/A   Overcast
6:13 AM 53.6 °F 51.8 °F 94% 29.90 in 10.0 mi NNE 8.1 mph - N/A   Overcast
6:33 AM 53.6 °F 51.8 °F 94% 29.90 in 10.0 mi NNE 6.9 mph - N/A   Overcast
6:53 AM 53.6 °F 51.8 °F 94% 29.90 in 10.0 mi NNE 9.2 mph - N/A   Overcast
7:13 AM 53.6 °F 51.8 °F 94% 29.90 in 10.0 mi NNE 6.9 mph - N/A   Overcast
7:33 AM 53.6 °F 51.8 °F 94% 29.91 in 10.0 mi NNE 6.9 mph - N/A   Overcast
7:53 AM 53.6 °F 51.8 °F 94% 29.91 in 10.0 mi North 9.2 mph - N/A   Overcast
8:13 AM 53.6 °F 51.8 °F 94% 29.91 in 10.0 mi NNE 6.9 mph - N/A   Overcast
8:33 AM 53.6 °F 51.8 °F 94% 29.91 in 10.0 mi NE 6.9 mph - N/A   Overcast
8:53 AM 53.6 °F 51.8 °F 94% 29.91 in 10.0 mi NE 5.8 mph - N/A   Overcast
9:13 AM 55.4 °F 51.8 °F 88% 29.91 in 10.0 mi NNE 8.1 mph - N/A   Overcast
9:33 AM 55.4 °F 51.8 °F 88% 29.91 in 10.0 mi NNE 6.9 mph - N/A   Overcast
9:53 AM 55.4 °F 51.8 °F 88% 29.91 in 10.0 mi NNE 9.2 mph - N/A   Overcast
10:13 AM 55.4 °F 51.8 °F 88% 29.90 in 5.0 mi NE 10.4 mph - N/A   Overcast
10:33 AM 55.4 °F 51.8 °F 88% 29.91 in 10.0 mi NE 6.9 mph - N/A   Overcast
10:53 AM 55.4 °F 53.6 °F 94% 29.91 in 10.0 mi NE 5.8 mph - N/A   Overcast
11:13 AM 55.4 °F 53.6 °F 94% 29.90 in 10.0 mi NE 8.1 mph - N/A Thunderstorm Thunderstorm
11:33 AM 55.4 °F 53.6 °F 94% 29.89 in 7.0 mi NE 5.8 mph - N/A Thunderstorm Overcast
11:53 AM 55.4 °F 53.6 °F 94% 29.89 in 5.0 mi NNE 9.2 mph - N/A   Overcast
12:13 PM 55.4 °F 53.6 °F 94% 29.89 in 3.0 mi NNE 10.4 mph - N/A   Overcast
12:33 PM 55.4 °F 53.6 °F 94% 29.89 in 3.0 mi NNE 6.9 mph - 0.04 in Rain Light Rain
12:53 PM 55.4 °F 53.6 °F 94% 29.91 in 7.0 mi North 9.2 mph - 0.05 in   Overcast
1:13 PM 55.4 °F 53.6 °F 94% 29.92 in 5.0 mi NNE 3.5 mph - N/A Rain Light Rain
1:33 PM 55.4 °F 53.6 °F 94% 29.92 in 7.0 mi North 5.8 mph - N/A Rain Light Rain
1:53 PM 55.4 °F 53.6 °F 94% 29.91 in 7.0 mi North 8.1 mph - N/A   Light Drizzle
2:13 PM 55.4 °F 53.6 °F 94% 29.91 in 5.0 mi North 11.5 mph - N/A   Light Drizzle
2:33 PM 55.4 °F 53.6 °F 94% 29.90 in 10.0 mi NNE 12.7 mph - N/A   Overcast
2:53 PM 55.4 °F 53.6 °F 94% 29.90 in 10.0 mi NE 11.5 mph 19.6 mph N/A Rain Light Rain
3:13 PM 55.4 °F 53.6 °F 94% 29.90 in 10.0 mi NNE 9.2 mph 16.1 mph N/A Rain Rain
3:33 PM 55.4 °F 53.6 °F 94% 29.91 in 10.0 mi NE 5.8 mph - 0.01 in Rain Rain
3:53 PM 55.4 °F 53.6 °F 94% 29.91 in 10.0 mi NE 8.1 mph - 0.03 in Rain Light Rain
4:13 PM 55.4 °F 53.6 °F 94% 29.89 in 10.0 mi NNE 10.4 mph 16.1 mph N/A   Light Drizzle
4:33 PM 55.4 °F 53.6 °F 94% 29.89 in 10.0 mi NNE 11.5 mph 17.3 mph N/A   Overcast
4:53 PM 55.4 °F 53.6 °F 94% 29.90 in 10.0 mi NE 6.9 mph 17.3 mph N/A   Overcast
5:13 PM 55.4 °F 53.6 °F 94% 29.90 in 10.0 mi NNE 11.5 mph 16.1 mph N/A   Overcast
5:33 PM 55.4 °F 53.6 °F 94% 29.89 in 10.0 mi NNE 10.4 mph - N/A   Overcast
5:53 PM 55.4 °F 53.6 °F 94% 29.91 in 10.0 mi NE 6.9 mph - N/A   Overcast
6:13 PM 55.4 °F 53.6 °F 94% 29.92 in 10.0 mi NNE 5.8 mph - N/A   Overcast
6:33 PM 55.4 °F 53.6 °F 94% 29.91 in 10.0 mi NNE 8.1 mph - N/A   Overcast
6:53 PM 55.4 °F 53.6 °F 94% 29.91 in 10.0 mi NE 11.5 mph 16.1 mph N/A   Overcast
7:13 PM 55.4 °F 53.6 °F 94% 29.91 in 10.0 mi NE 8.1 mph - N/A   Overcast
7:33 PM 55.4 °F 53.6 °F 94% 29.91 in 10.0 mi NE 11.5 mph - N/A   Overcast
7:53 PM 55.4 °F 53.6 °F 94% 29.92 in 10.0 mi NNE 10.4 mph - N/A   Overcast
8:13 PM 55.4 °F 53.6 °F 94% 29.93 in 10.0 mi North 8.1 mph - N/A   Overcast
8:33 PM 55.4 °F 53.6 °F 94% 29.95 in 10.0 mi North 9.2 mph - N/A   Overcast
8:53 PM 55.4 °F 51.8 °F 88% 29.93 in 10.0 mi NNE 10.4 mph - N/A   Overcast
9:13 PM 55.4 °F 51.8 °F 88% 29.93 in 10.0 mi NNE 9.2 mph 17.3 mph N/A   Overcast
9:33 PM 55.4 °F 51.8 °F 88% 29.95 in 10.0 mi North 8.1 mph - N/A   Overcast
9:53 PM 55.4 °F 51.8 °F 88% 29.96 in 10.0 mi North 8.1 mph - N/A   Overcast
10:13 PM 55.4 °F 51.8 °F 88% 29.97 in 10.0 mi NNE 8.1 mph 17.3 mph N/A   Overcast
10:34 PM 55.4 °F 51.8 °F 88% 29.97 in 10.0 mi NNE 9.2 mph - N/A   Overcast
11:34 PM 53.6 °F 51.8 °F 94% 29.99 in 10.0 mi North 10.4 mph - N/A   Overcast
11:53 PM 53.6 °F 51.8 °F 94% 29.98 in 10.0 mi North 9.2 mph - N/A   Overcast